Temp
-8 -8 -8 -8 -8 -8 -8 -8 -8 -8 -8 -8 -8 -8 -9 -9 -9 -9 -10 -9 -9 -9 -9 -9 -9 -10 -10 -10 -11 -10 -10 -10 -10 -10 -10 -10 -11 -11 -10 -11 -11 -11 -11 -11 -11
-8 -8 -8 -8 -8 -8 -8 -8 -8 -8 -8 -8 -8 -9 -9 -9 -9 -9 -9 -9 -9 -9 -9 -10 -10 -10 -10 -10 -11 -11 -11 -11 -10 -10 -10 -11 -11 -11 -11 -11 -11 -11 -11 -11 -11
-9 -8 -9 -9 -9 -9 -8 -8 -9 -8 -8 -8 -9 -9 -9 -9 -9 -9 -10 -10 -9 -9 -9 -10 -10 -10 -10 -10 -11 -11 -11 -11 -11 -11 -11 -11 -11 -11 -11 -11 -11 -11 -11 -11 -11
-9 -9 -9 -9 -9 -9 -9 -9 -9 -9 -9 -8 -8 -9 -9 -9 -9 -9 -10 -10 -10 -10 -10 -10 -10 -10 -10 -10 -11 -11 -11 -11 -11 -11 -11 -11 -11 -11 -11 -11 -11 -11 -11 -11 -11
-9 -10 -10 -10 -10 -10 -10 -9 -9 -9 -9 -9 -9 -9 -9 -9 -10 -9 -10 -10 -10 -10 -10 -10 -10 -10 -10 -11 -11 -11 -11 -11 -11 -11 -11 -11 -11 -11 -11 -11 -11 -11 -11 -12 -12
-10 -10 -10 -10 -10 -10 -10 -10 -10 -9 -10 -9 -9 -9 -9 -10 -10 -10 -10 -10 -10 -10 -10 -10 -10 -10 -11 -11 -11 -11 -11 -11 -11 -11 -11 -11 -11 -12 -11 -11 -11 -11 -11 -12 -12
-11 -11 -11 -11 -11 -11 -11 -10 -10 -10 -10 -10 -10 -10 -10 -10 -10 -10 -10 -10 -10 -10 -10 -10 -10 -11 -11 -11 -11 -11 -11 -11 -11 -11 -11 -11 -11 -11 -11 -12 -12 -11 -12 -12 -12
-12 -12 -11 -11 -11 -11 -11 -11 -11 -11 -10 -10 -10 -10 -10 -10 -10 -10 -10 -10 -10 -10 -10 -11 -11 -11 -11 -11 -11 -11 -11 -11 -11 -11 -11 -11 -12 -12 -11 -11 -12 -12 -12 -12 -12
-12 -12 -12 -12 -12 -12 -12 -12 -11 -11 -11 -11 -11 -11 -11 -11 -11 -11 -11 -11 -11 -11 -11 -11 -11 -11 -11 -12 -11 -11 -11 -11 -11 -11 -11 -11 -11 -11 -11 -11 -12 -12 -12 -12 -12
-12 -12 -12 -12 -12 -12 -12 -12 -12 -12 -12 -11 -11 -11 -11 -11 -11 -11 -11 -11 -11 -11 -11 -11 -11 -11 -12 -12 -11 -11 -11 -11 -11 -11 -11 -11 -11 -11 -11 -11 -12 -12 -12 -12 -12
-13 -12 -12 -12 -12 -12 -12 -12 -12 -12 -13 -12 -12 -12 -12 -11 -12 -12 -12 -11 -11 -11 -11 -11 -11 -11 -12 -12 -12 -12 -12 -11 -11 -11 -11 -11 -11 -11 -11 -11 -12 -12 -12 -12 -12
-13 -13 -13 -13 -12 -12 -13 -13 -13 -13 -13 -13 -12 -12 -12 -12 -12 -12 -12 -12 -11 -11 -11 -12 -12 -12 -12 -12 -12 -12 -11 -11 -11 -11 -11 -11 -11 -11 -11 -11 -11 -12 -12 -12 -12
-14 -13 -13 -13 -13 -12 -12 -12 -13 -13 -13 -13 -13 -13 -13 -12 -12 -12 -12 -12 -12 -11 -12 -12 -12 -12 -12 -12 -12 -12 -11 -11 -11 -12 -11 -11 -11 -11 -11 -11 -12 -12 -12 -12 -12
-15 -14 -13 -13 -13 -13 -13 -13 -12 -13 -12 -11 -12 -12 -13 -13 -12 -12 -12 -12 -12 -12 -12 -12 -12 -12 -12 -12 -12 -12 -12 -11 -12 -12 -12 -11 -11 -11 -11 -11 -12 -12 -12 -12 -12
-16 -15 -14 -14 -13 -13 -13 -13 -13 -12 -12 -12 -11 -12 -12 -13 -12 -12 -12 -12 -12 -12 -12 -12 -12 -12 -13 -13 -13 -12 -12 -11 -12 -12 -12 -12 -11 -11 -12 -12 -12 -12 -13 -12 -12
-16 -15 -15 -14 -14 -14 -14 -13 -13 -13 -11 -11 -11 -11 -12 -12 -13 -13 -13 -13 -12 -12 -12 -12 -12 -13 -13 -13 -13 -13 -12 -12 -12 -12 -12 -12 -12 -12 -12 -12 -12 -12 -13 -13 -12
-17 -16 -16 -15 -15 -15 -15 -14 -14 -13 -11 -11 -11 -12 -12 -12 -13 -13 -13 -13 -12 -13 -12 -12 -13 -13 -13 -13 -13 -13 -12 -12 -12 -12 -12 -12 -11 -12 -12 -12 -12 -12 -13 -13 -13
-18 -17 -16 -16 -16 -15 -15 -15 -14 -12 -12 -12 -12 -12 -12 -13 -13 -13 -13 -13 -13 -13 -13 -13 -13 -13 -13 -13 -13 -13 -13 -13 -13 -12 -12 -12 -11 -12 -12 -12 -12 -12 -12 -13 -13
-18 -17 -17 -17 -17 -17 -16 -16 -14 -13 -13 -13 -13 -13 -13 -13 -14 -14 -13 -13 -13 -13 -13 -13 -13 -13 -13 -13 -13 -13 -13 -13 -13 -13 -12 -12 -12 -12 -12 -12 -12 -12 -13 -13 -12
-19 -19 -18 -18 -17 -17 -17 -16 -14 -14 -14 -14 -13 -14 -14 -14 -14 -15 -15 -14 -13 -13 -13 -13 -13 -13 -13 -13 -13 -13 -13 -13 -13 -13 -13 -12 -12 -12 -12 -12 -12 -12 -13 -13 -12
-20 -19 -17 -17 -17 -18 -17 -16 -15 -16 -15 -15 -14 -14 -14 -14 -15 -16 -14 -14 -14 -14 -14 -14 -14 -13 -13 -13 -13 -13 -13 -13 -14 -13 -13 -13 -12 -13 -12 -12 -12 -12 -13 -13 -12
-21 -20 -18 -19 -19 -18 -18 -17 -18 -18 -16 -15 -15 -14 -14 -15 -15 -15 -15 -14 -15 -15 -14 -14 -14 -14 -14 -14 -14 -14 -13 -13 -13 -13 -14 -13 -12 -12 -13 -12 -12 -13 -13 -13 -13
-21 -21 -20 -20 -20 -20 -18 -18 -17 -17 -17 -17 -16 -15 -15 -15 -15 -15 -15 -15 -15 -16 -16 -16 -15 -15 -14 -14 -14 -13 -13 -14 -14 -14 -14 -13 -13 -13 -13 -12 -12 -13 -13 -13 -13
-22 -22 -21 -21 -20 -19 -19 -20 -19 -18 -17 -18 -17 -17 -16 -15 -15 -15 -15 -16 -17 -16 -16 -16 -15 -15 -14 -14 -14 -14 -14 -15 -15 -14 -14 -13 -14 -13 -12 -11 -13 -13 -13 -13 -13
-23 -22 -22 -21 -21 -21 -21 -20 -19 -20 -18 -18 -18 -17 -17 -16 -16 -15 -15 -16 -17 -17 -17 -16 -15 -14 -15 -15 -14 -14 -14 -14 -13 -14 -13 -13 -14 -14 -13 -11 -13 -13 -13 -13 -13
-22 -23 -23 -22 -22 -22 -22 -21 -20 -20 -20 -18 -17 -18 -18 -17 -17 -16 -16 -16 -16 -17 -17 -17 -15 -15 -15 -15 -15 -14 -14 -14 -14 -13 -12 -13 -14 -14 -13 -12 -13 -13 -13 -13 -14
-23 -23 -24 -23 -23 -23 -22 -21 -21 -22 -21 -20 -19 -20 -19 -18 -17 -17 -16 -17 -17 -17 -17 -17 -16 -15 -14 -15 -15 -13 -12 -13 -14 -13 -13 -13 -14 -14 -14 -13 -13 -13 -13 -13 -13
Height
5807 5808 5810 5811 5813 5815 5816 5816 5817 5817 5818 5818 5817 5817 5818 5818 5818 5817 5818 5820 5819 5818 5818 5818 5818 5817 5816 5815 5814 5814 5814 5812 5811 5809 5808 5805 5804 5802 5801 5799 5798 5796 5794 5791 5788
5802 5803 5805 5807 5808 5810 5811 5812 5812 5813 5813 5814 5814 5813 5812 5814 5815 5814 5815 5815 5815 5815 5814 5815 5814 5815 5813 5812 5811 5810 5810 5808 5807 5805 5804 5803 5801 5799 5798 5795 5794 5792 5789 5786 5784
5795 5797 5799 5801 5803 5804 5805 5807 5808 5808 5809 5809 5810 5810 5809 5808 5812 5810 5809 5810 5812 5812 5812 5811 5811 5811 5810 5809 5807 5807 5806 5804 5802 5801 5800 5799 5797 5795 5794 5791 5789 5787 5785 5783 5780
5788 5790 5792 5793 5796 5798 5800 5801 5802 5803 5804 5804 5805 5805 5806 5804 5808 5808 5806 5806 5808 5808 5808 5808 5807 5807 5806 5805 5803 5804 5802 5801 5799 5798 5797 5797 5794 5791 5789 5788 5785 5783 5781 5779 5776
5780 5782 5784 5787 5789 5791 5794 5796 5796 5797 5798 5798 5800 5799 5801 5801 5802 5804 5804 5803 5803 5805 5804 5804 5804 5803 5803 5801 5799 5799 5798 5797 5796 5795 5794 5792 5791 5787 5784 5784 5780 5778 5776 5774 5771
5771 5773 5775 5778 5781 5784 5786 5789 5789 5790 5792 5792 5794 5794 5796 5797 5797 5799 5799 5798 5799 5801 5801 5801 5800 5800 5799 5797 5795 5794 5794 5793 5792 5790 5790 5788 5787 5783 5780 5778 5776 5774 5772 5769 5767
5762 5763 5766 5768 5772 5776 5778 5780 5782 5783 5784 5785 5787 5789 5790 5793 5791 5793 5794 5794 5794 5796 5797 5796 5796 5795 5794 5793 5791 5790 5790 5789 5788 5787 5786 5784 5782 5779 5776 5774 5772 5769 5767 5764 5762
5751 5755 5756 5760 5763 5766 5769 5772 5774 5776 5776 5779 5779 5782 5783 5787 5787 5788 5789 5791 5790 5791 5791 5791 5791 5790 5789 5788 5787 5785 5786 5785 5783 5782 5781 5780 5778 5773 5771 5769 5767 5765 5763 5760 5758
5743 5744 5747 5750 5753 5756 5759 5762 5765 5767 5769 5771 5773 5775 5777 5780 5781 5781 5783 5785 5785 5786 5786 5787 5787 5786 5785 5783 5783 5781 5781 5780 5779 5778 5776 5775 5774 5766 5766 5764 5761 5760 5759 5756 5754
5732 5735 5739 5742 5743 5746 5749 5753 5755 5759 5761 5764 5764 5768 5772 5774 5775 5775 5777 5779 5779 5780 5782 5782 5782 5782 5780 5779 5779 5776 5777 5776 5774 5776 5772 5770 5770 5763 5762 5761 5757 5755 5754 5752 5749
5722 5725 5729 5732 5735 5737 5740 5744 5748 5750 5752 5755 5758 5759 5762 5765 5768 5769 5771 5773 5774 5776 5777 5777 5778 5777 5776 5774 5774 5772 5772 5772 5770 5771 5770 5765 5764 5760 5757 5756 5754 5751 5749 5747 5745
5711 5714 5718 5722 5726 5729 5732 5734 5736 5739 5742 5745 5748 5751 5754 5757 5759 5761 5765 5767 5769 5769 5771 5772 5773 5772 5771 5770 5770 5768 5768 5768 5767 5766 5766 5762 5760 5757 5755 5752 5750 5748 5745 5743 5741
5698 5702 5706 5711 5715 5719 5723 5724 5724 5726 5730 5735 5738 5741 5746 5749 5751 5756 5758 5760 5763 5764 5765 5766 5768 5767 5766 5765 5765 5765 5763 5764 5763 5763 5761 5759 5757 5754 5751 5749 5747 5744 5742 5740 5738
5686 5689 5693 5698 5705 5706 5711 5713 5714 5716 5718 5725 5729 5730 5735 5740 5741 5747 5750 5754 5756 5758 5758 5760 5762 5763 5762 5761 5760 5761 5759 5759 5758 5758 5757 5754 5754 5751 5748 5746 5744 5741 5739 5737 5734
5673 5677 5680 5686 5692 5695 5699 5701 5703 5706 5708 5717 5719 5721 5726 5730 5739 5740 5744 5746 5749 5751 5752 5756 5756 5757 5757 5756 5756 5756 5754 5754 5754 5753 5752 5751 5748 5747 5745 5743 5741 5738 5735 5733 5731
5661 5664 5666 5674 5679 5682 5686 5689 5690 5693 5698 5703 5708 5713 5717 5722 5727 5732 5735 5738 5742 5742 5744 5748 5749 5752 5753 5751 5751 5751 5750 5749 5749 5748 5749 5746 5744 5743 5741 5740 5739 5735 5732 5730 5728
5649 5651 5655 5659 5665 5669 5672 5673 5675 5679 5691 5695 5698 5702 5708 5712 5717 5722 5727 5729 5732 5735 5739 5742 5743 5746 5746 5747 5746 5746 5745 5745 5745 5744 5744 5742 5740 5738 5737 5737 5735 5731 5729 5726 5724
5634 5641 5644 5647 5650 5653 5657 5660 5659 5678 5679 5685 5686 5690 5696 5702 5706 5711 5715 5719 5723 5726 5732 5733 5736 5739 5741 5741 5741 5741 5741 5740 5738 5739 5740 5738 5736 5734 5733 5732 5731 5728 5725 5723 5721
5619 5625 5629 5635 5638 5641 5642 5640 5655 5665 5668 5671 5675 5678 5684 5690 5697 5701 5705 5709 5714 5719 5724 5726 5727 5731 5732 5734 5735 5736 5736 5736 5734 5735 5735 5736 5733 5729 5728 5728 5726 5723 5721 5719 5717
5603 5609 5616 5622 5627 5627 5624 5629 5642 5646 5651 5656 5661 5667 5671 5678 5682 5687 5693 5701 5706 5711 5714 5715 5718 5721 5724 5725 5727 5728 5730 5731 5730 5729 5729 5731 5729 5725 5723 5724 5722 5720 5718 5716 5713
5588 5593 5603 5606 5608 5605 5608 5622 5629 5630 5636 5642 5647 5653 5658 5665 5670 5676 5681 5689 5695 5700 5702 5705 5709 5713 5715 5717 5720 5721 5722 5724 5724 5725 5723 5724 5726 5721 5720 5720 5718 5716 5714 5713 5711
5572 5577 5589 5587 5587 5587 5599 5612 5615 5618 5621 5629 5635 5640 5645 5650 5655 5661 5666 5676 5681 5687 5691 5695 5696 5699 5705 5708 5709 5711 5714 5716 5717 5720 5720 5718 5722 5716 5715 5717 5714 5713 5710 5709 5708
5556 5563 5569 5572 5571 5576 5585 5594 5598 5607 5611 5617 5622 5628 5631 5636 5641 5648 5654 5661 5666 5670 5675 5683 5682 5687 5690 5695 5696 5702 5706 5710 5711 5710 5714 5714 5716 5710 5707 5712 5710 5708 5706 5706 5705
5541 5545 5553 5556 5562 5567 5575 5579 5585 5593 5600 5604 5611 5614 5619 5625 5627 5633 5639 5647 5651 5655 5661 5667 5670 5674 5680 5687 5694 5695 5700 5701 5699 5699 5707 5710 5710 5706 5700 5707 5707 5704 5702 5701 5702
5524 5530 5537 5539 5548 5557 5557 5563 5572 5578 5586 5590 5595 5603 5611 5611 5614 5618 5623 5630 5635 5642 5646 5651 5659 5662 5667 5673 5678 5684 5688 5689 5689 5693 5695 5704 5704 5703 5696 5702 5702 5700 5698 5698 5699
5508 5514 5519 5525 5532 5537 5540 5547 5556 5567 5568 5575 5585 5595 5596 5598 5604 5606 5608 5611 5618 5625 5630 5635 5645 5651 5655 5660 5665 5669 5675 5677 5680 5680 5688 5694 5699 5696 5691 5696 5697 5696 5695 5695 5696
5491 5495 5500 5507 5511 5516 5527 5541 5546 5549 5553 5563 5571 5572 5579 5591 5590 5592 5596 5601 5606 5612 5616 5623 5630 5637 5641 5647 5650 5655 5661 5667 5671 5673 5682 5686 5694 5688 5687 5691 5691 5691 5691 5690 5690
Wind_Speed
28 26 24 21 20 21 20 20 19 19 20 22 22 23 23 24 22 19 18 18 16 15 15 15 16 16 14 14 15 16 17 18 18 18 17 16 16 18 17 17 19 20 21 22 22
33 30 29 27 24 22 23 23 23 23 22 23 24 24 23 24 25 21 20 19 17 16 15 16 16 18 16 15 16 17 18 16 16 17 17 17 17 17 17 17 19 19 21 22 23
36 35 33 32 28 27 25 27 27 26 26 24 25 25 25 24 26 23 21 20 19 17 17 16 17 17 18 18 17 19 18 16 17 17 16 17 16 17 18 18 19 20 22 23 23
40 38 37 35 33 31 30 30 30 29 29 28 27 26 27 25 25 25 22 21 20 18 18 17 17 17 18 19 19 19 19 17 16 16 15 16 16 17 19 18 19 21 21 21 21
44 42 41 41 39 35 33 35 33 32 31 29 28 26 27 26 24 26 24 22 21 20 18 17 18 17 20 20 20 20 19 16 16 16 16 16 17 17 20 19 20 20 20 20 22
50 48 45 44 42 41 37 38 37 35 34 31 29 27 28 26 25 26 25 23 21 21 19 18 19 20 23 23 20 19 20 18 18 17 18 19 19 20 21 20 21 21 21 21 21
55 51 48 45 44 44 41 41 40 37 36 33 32 30 29 28 26 27 26 24 21 21 21 20 21 21 24 24 20 18 19 18 19 18 18 21 23 21 22 21 22 22 21 22 22
47 48 46 47 48 49 48 44 43 40 36 35 34 32 27 30 27 27 25 25 23 22 22 21 22 23 25 22 20 18 19 19 19 20 20 21 21 26 23 21 22 22 21 22 21
43 40 40 41 41 44 46 46 45 41 38 38 36 34 31 31 30 28 27 26 24 24 24 22 23 23 24 21 20 18 19 20 19 21 22 23 21 31 21 19 23 21 20 22 21
46 43 43 42 39 41 43 45 46 44 40 40 38 37 34 33 32 30 28 27 25 25 25 23 23 25 23 21 20 18 19 20 21 19 21 23 21 28 20 18 20 22 18 20 20
50 48 46 44 43 41 43 46 49 50 44 42 42 42 38 37 35 32 30 28 27 26 27 25 24 23 22 21 21 19 19 19 19 21 18 22 19 23 22 19 15 18 20 19 20
55 52 50 48 45 45 44 43 45 45 45 44 42 40 38 36 36 34 32 30 28 27 29 27 24 24 24 21 21 19 18 18 17 20 19 20 18 20 20 19 18 17 18 19 20
58 56 55 53 49 48 49 48 44 46 51 49 48 47 45 42 38 37 34 30 29 29 31 29 24 23 23 20 20 20 19 18 20 20 19 19 17 20 20 19 18 18 17 19 20
49 53 55 55 55 54 51 50 53 49 48 46 49 47 46 43 44 39 36 33 31 32 33 31 26 25 22 19 20 19 20 21 20 21 20 22 17 18 18 17 17 18 17 18 20
56 55 53 52 56 55 54 53 54 56 51 48 48 49 48 48 42 39 37 35 33 34 35 31 29 27 23 20 20 19 21 23 23 23 21 20 21 19 18 17 17 19 17 17 19
55 55 59 60 51 55 56 56 55 58 57 53 50 48 50 48 48 43 42 39 36 37 36 33 33 31 26 23 20 22 22 23 23 22 19 20 21 19 18 17 16 20 18 18 19
53 57 55 58 57 54 55 58 58 58 56 55 53 52 47 49 49 48 43 42 41 39 37 35 36 33 30 26 23 23 23 25 23 20 19 19 20 22 20 18 17 20 18 17 19
57 54 55 55 52 57 61 61 63 56 55 55 56 55 54 48 47 51 50 47 45 41 37 38 36 34 30 29 28 27 26 25 26 21 17 17 22 22 23 20 18 18 20 17 19
58 64 59 52 54 54 56 63 62 60 58 55 56 59 56 54 53 41 44 46 48 44 40 39 41 36 34 34 33 29 28 27 27 26 21 16 19 24 25 23 19 19 20 15 17
52 58 68 63 59 58 59 60 61 62 60 61 57 59 60 59 51 53 54 43 42 44 44 45 45 40 38 37 37 35 32 31 28 28 25 17 18 24 25 23 21 20 16 13 17
50 55 69 62 61 51 58 59 56 58 61 61 62 57 58 60 59 59 57 49 45 37 39 46 46 45 43 42 39 38 37 35 33 29 28 25 18 24 23 18 18 16 13 13 16
53 54 61 73 71 74 59 51 53 49 57 60 59 61 59 61 63 60 60 54 49 43 43 40 44 47 44 43 44 43 40 38 34 31 28 27 19 25 24 16 17 14 15 12 14
55 56 57 62 70 78 77 64 61 52 50 50 54 56 59 59 62 62 62 58 55 55 46 42 50 48 49 51 52 47 43 38 37 37 27 26 20 27 29 19 15 15 15 12 13
60 60 59 63 66 68 72 75 67 68 64 50 50 51 54 58 61 63 62 59 54 54 57 54 52 54 54 49 44 44 38 36 38 41 26 19 21 25 33 17 15 16 17 17 12
63 64 63 64 66 60 64 69 72 67 72 67 52 49 50 53 56 60 64 64 62 58 57 59 62 59 55 53 52 46 44 44 44 40 35 20 21 23 36 20 15 16 15 18 14
65 67 67 66 61 64 64 64 70 69 67 72 59 50 50 52 51 51 57 63 68 67 62 62 60 63 64 59 56 54 52 52 49 48 36 23 16 25 34 25 17 16 16 16 17
64 68 70 70 68 65 65 61 61 59 65 75 76 66 63 54 51 53 53 51 57 66 68 68 62 63 66 62 61 56 53 53 55 51 38 29 19 29 33 26 20 18 17 16 18
Wind_Direction
244 244 245 240 251 257 261 263 267 271 278 280 275 272 271 271 268 266 267 269 271 275 281 282 287 290 291 288 285 284 285 289 292 290 287 290 294 295 300 297 294 293 296 293 284
248 245 244 248 252 259 263 263 261 263 272 279 277 272 267 271 269 266 265 264 267 271 276 280 286 293 294 290 287 285 286 288 291 290 283 290 294 294 293 293 294 294 292 289 284
248 247 244 247 252 262 268 264 262 260 264 271 275 273 270 268 269 264 260 261 264 268 273 277 284 292 298 299 294 287 287 290 292 290 286 291 295 297 295 294 296 297 293 290 291
251 250 248 246 253 259 265 262 261 261 261 269 271 270 269 264 264 264 260 258 262 263 269 272 279 288 296 301 298 288 286 286 296 293 290 295 297 297 295 299 298 298 297 295 291
249 250 249 253 256 257 260 261 259 261 262 260 265 266 267 267 264 264 258 257 260 265 264 267 273 283 294 297 296 290 283 289 291 292 284 290 295 292 292 294 295 300 299 295 292
251 249 249 252 254 254 258 260 260 258 259 257 258 265 268 265 264 262 259 256 258 263 262 265 271 282 293 295 290 284 281 285 291 290 280 285 295 295 292 293 294 296 299 295 293
252 250 251 252 251 253 259 260 258 256 255 253 255 257 263 262 258 260 258 257 257 258 260 263 271 282 292 292 284 280 279 283 287 287 285 285 292 294 299 295 291 292 299 297 297
250 250 250 251 253 256 258 256 255 253 253 254 253 253 254 263 261 258 256 258 256 256 257 262 273 284 290 287 278 278 278 280 281 283 283 283 290 296 301 299 292 290 296 297 299
247 248 250 250 253 255 252 251 251 249 252 253 251 249 250 255 259 256 254 255 255 254 256 263 275 283 285 280 275 274 276 278 277 283 284 284 293 290 304 298 288 294 293 297 299
248 247 249 251 254 254 251 247 248 248 249 250 248 249 249 255 259 255 253 253 250 251 254 264 274 284 281 277 275 274 275 277 284 284 288 290 293 294 308 299 295 297 298 296 299
247 247 248 250 251 254 249 246 248 248 244 244 249 247 248 252 254 253 252 250 250 247 252 261 272 283 279 275 273 273 277 281 285 286 287 291 298 298 304 308 298 295 301 299 297
246 246 247 249 251 253 250 249 250 245 240 240 242 245 247 246 247 251 249 248 248 245 249 259 270 280 278 272 272 275 277 278 285 284 288 294 299 304 304 309 310 304 300 301 300
243 243 242 244 247 249 252 253 248 245 240 237 244 247 247 244 245 250 248 245 247 246 248 255 266 278 274 269 272 273 275 279 284 286 297 296 301 304 307 312 310 307 305 307 306
238 242 243 245 243 246 247 251 252 244 244 241 244 241 240 243 242 243 247 245 246 247 248 253 263 270 273 270 270 272 274 278 285 290 295 294 304 307 309 309 309 305 308 311 308
252 249 247 244 244 245 247 248 250 248 244 247 242 244 241 244 244 243 245 244 246 248 248 251 257 262 270 272 274 276 279 282 290 291 295 294 301 304 309 311 309 305 308 311 309
249 251 253 245 243 246 244 245 248 247 250 248 248 245 244 245 242 243 243 242 245 246 248 249 254 258 268 271 280 279 282 284 291 290 294 297 299 302 306 308 311 308 310 310 305
238 247 250 251 250 246 245 245 244 243 247 250 251 250 244 242 241 241 241 243 245 248 249 252 255 257 262 267 276 280 281 286 293 290 293 295 298 298 302 303 306 304 311 310 301
234 237 243 242 250 251 247 245 246 242 245 251 250 250 247 243 242 241 241 239 241 246 247 248 250 254 257 264 270 276 280 287 291 297 295 297 301 297 297 299 302 301 308 313 306
238 230 234 241 246 248 248 246 244 244 244 244 248 253 248 245 241 240 239 241 241 243 247 248 250 252 255 259 264 270 275 280 286 291 295 297 293 295 290 294 299 298 304 313 309
239 231 233 237 234 237 239 241 244 243 244 245 243 243 247 247 242 238 235 238 241 241 243 245 247 247 251 254 257 264 269 273 278 284 290 297 294 292 288 292 295 301 301 313 313
243 232 222 220 225 233 231 236 235 238 240 242 241 241 243 245 244 245 242 235 234 235 240 243 244 246 247 250 255 258 262 266 268 277 289 297 295 282 289 293 296 298 295 311 309
246 243 234 244 239 236 231 225 228 237 236 237 240 240 238 240 243 240 245 241 231 232 236 240 242 244 245 247 250 253 255 258 265 273 281 291 299 287 289 298 292 292 289 304 306
249 246 241 238 246 246 240 238 235 235 233 234 236 239 238 237 237 239 243 245 238 225 227 231 235 237 237 240 243 248 253 260 267 268 274 281 296 288 288 295 293 288 285 294 294
250 249 245 243 241 246 249 248 244 244 239 231 233 236 239 240 236 236 237 237 232 236 237 228 229 237 243 248 249 253 255 255 256 259 267 275 283 283 280 298 290 281 278 288 290
249 250 248 247 244 243 246 245 242 241 239 241 231 235 240 240 237 235 234 233 228 228 232 238 232 235 237 241 245 246 248 248 254 262 259 269 274 269 274 285 283 271 276 286 291
251 249 248 248 247 243 239 239 241 244 239 241 234 240 246 246 242 239 237 237 233 228 228 235 237 236 237 240 243 245 246 249 250 255 262 265 258 263 266 277 278 276 278 280 282
252 249 247 245 245 243 240 238 241 240 245 245 248 251 248 246 244 242 239 238 241 236 231 232 234 232 235 238 242 245 246 248 251 255 261 259 261 248 263 271 275 270 277 281 276